Wind_Speed
16 16 16 17 18 20 21 21 21 20 19 18 18 20 20 21 20 8 11 3 6 17 15 14 13 9 9 13 7 4 3 1 10 3 13 14 15 11 7 7 5 5 10 22 25
18 16 17 17 18 19 21 22 21 21 21 18 18 19 18 20 17 18 8 8 8 19 16 13 11 8 13 6 5 3 6 1 8 12 14 13 8 12 10 5 9 13 18 26 24
19 18 17 17 17 18 19 21 21 22 20 19 18 17 15 17 12 5 6 10 11 18 13 11 6 9 9 7 2 9 9 7 6 3 7 15 11 14 15 8 13 17 22 22 24
20 20 18 18 18 19 19 20 21 21 19 18 18 15 12 7 7 7 1 11 14 19 12 11 9 13 2 8 1 7 10 8 8 2 10 18 16 13 11 1 13 18 21 21 20
21 21 18 18 18 19 21 22 22 19 17 18 16 12 7 10 15 3 3 12 18 16 16 12 12 13 5 7 5 9 6 5 15 10 18 18 15 13 15 13 19 19 21 20 19
23 22 20 20 19 20 21 24 21 17 17 16 13 8 9 16 2 5 9 14 17 17 16 13 11 8 8 11 8 2 3 20 14 6 10 12 14 13 12 13 17 19 20 19 19
25 25 24 23 21 21 22 22 19 17 15 13 9 7 14 15 2 8 13 15 16 16 15 13 13 11 8 12 1 9 9 18 15 15 10 14 15 8 13 13 16 19 18 18 18
26 26 25 24 22 21 24 19 19 14 8 5 3 9 11 9 13 10 16 18 17 14 15 5 8 15 17 14 12 13 8 5 14 16 10 19 12 13 13 14 15 17 16 16 18
26 26 26 25 21 21 20 19 14 5 2 2 5 12 13 6 15 18 17 19 19 14 12 10 12 16 16 15 15 14 8 1 16 18 13 16 9 21 14 12 13 15 16 16 17
27 26 27 24 22 21 17 13 8 6 6 8 11 7 14 14 12 21 21 18 15 16 14 13 10 14 15 14 15 13 14 17 16 15 10 25 21 17 16 16 15 15 16 17 17
27 27 27 24 22 14 17 8 6 7 16 15 1 16 3 2 4 11 19 20 18 17 20 19 15 19 22 21 21 8 13 14 22 11 23 7 11 17 15 15 16 15 16 17 18
27 29 27 22 18 8 12 6 6 6 9 17 19 13 8 2 8 16 24 19 21 23 23 21 22 23 21 21 18 10 17 10 5 18 8 10 7 18 16 14 17 17 17 18 19
27 30 28 22 10 6 7 4 5 7 8 14 16 19 19 16 15 13 18 22 25 26 26 27 25 24 23 22 17 14 17 12 7 8 10 11 7 9 20 14 14 16 17 18 20
28 31 28 17 7 5 4 1 6 4 6 13 13 10 11 10 20 23 21 21 26 29 29 29 28 25 24 22 21 17 18 17 7 5 10 12 10 15 16 16 16 17 18 19 20
29 30 20 8 12 6 4 5 6 5 6 11 12 7 11 15 1 19 23 17 25 27 21 30 30 30 25 26 21 20 17 16 13 12 14 13 9 12 15 14 13 17 18 19 20
29 22 12 2 7 8 6 6 6 7 11 8 8 12 14 17 16 7 17 18 19 24 26 29 26 29 29 24 21 22 17 13 15 14 13 17 10 10 10 13 15 18 16 18 20
27 12 6 5 6 4 6 8 7 10 6 7 8 11 17 17 20 17 18 22 21 23 25 27 32 29 26 29 20 27 20 12 12 13 15 17 13 13 11 4 3 17 17 17 17
24 8 6 5 6 5 9 9 11 8 10 7 4 8 15 18 18 19 19 19 26 25 19 23 23 32 27 32 26 25 23 16 20 14 16 19 16 14 7 9 8 6 11 19 21
18 8 10 1 2 5 8 10 13 7 5 5 10 13 16 13 9 13 22 20 23 27 25 22 27 24 30 26 25 27 23 23 22 22 15 15 21 19 7 9 9 6 8 7 4
14 10 3 2 4 9 8 14 10 6 5 10 14 10 16 16 17 16 20 11 18 13 19 20 19 29 35 22 24 27 19 21 17 23 22 18 12 9 15 17 16 11 5 5 6
8 5 7 3 7 7 10 5 3 2 7 10 12 7 16 7 13 17 13 7 3 6 14 20 17 19 23 29 27 21 25 20 20 21 19 17 14 13 8 5 2 11 8 9 5
8 5 4 3 7 5 8 5 4 12 8 11 7 13 9 9 11 16 9 6 3 13 17 26 8 16 26 18 23 25 28 27 13 22 17 18 14 11 15 13 12 3 4 8 10
5 4 4 6 6 6 4 7 4 10 11 6 9 8 5 7 6 11 8 6 7 15 6 14 15 15 21 20 20 24 22 24 24 19 23 17 18 10 9 7 9 5 5 8 12
5 3 5 3 3 8 12 8 8 6 13 7 10 3 8 10 10 7 7 6 4 3 7 4 14 21 14 18 22 21 23 23 25 19 19 19 16 14 11 13 14 4 8 3 8
2 5 5 5 6 9 11 13 9 9 7 4 9 13 12 11 9 11 12 8 7 6 5 10 16 13 25 4 10 25 22 24 22 22 20 18 21 16 9 2 8 8 5 8 5
6 5 2 6 9 9 4 5 8 9 14 7 12 12 6 9 9 7 8 6 8 7 5 6 6 4 17 8 9 11 13 26 21 18 17 20 19 10 4 6 4 7 9 11 10
5 1 6 6 5 7 6 7 6 10 11 13 10 11 6 12 13 12 6 6 4 8 7 6 6 9 14 13 11 12 15 15 10 11 13 17 11 8 7 9 9 7 6 9 11
Wind_Direction
350 348 348 347 346 346 344 343 343 340 338 336 333 333 333 325 318 293 265 92 183 162 164 173 190 211 238 257 221 69 31 284 90 154 128 149 139 101 173 152 148 71 135 146 148
345 341 341 342 342 341 340 338 336 333 333 333 333 332 328 326 312 273 230 249 195 169 179 180 200 185 253 233 183 61 157 202 317 129 155 145 178 149 137 132 128 129 117 140 154
346 341 337 336 336 335 335 333 331 329 326 326 327 327 323 324 278 243 176 226 197 178 195 210 265 207 304 262 197 173 117 145 347 355 179 136 200 171 138 178 161 142 141 152 158
347 343 341 337 333 332 331 329 328 325 320 319 321 323 316 296 266 58 281 202 187 182 222 223 229 235 218 278 73 84 85 172 172 243 163 165 184 135 79 81 160 145 155 158 166
345 343 344 338 333 330 328 326 322 320 315 313 314 314 304 233 253 118 116 163 172 199 224 222 239 244 179 276 235 100 182 320 140 174 161 190 153 142 137 130 120 145 159 163 170
347 346 346 340 334 330 326 324 320 316 312 307 304 287 246 253 36 154 152 170 192 214 222 228 254 312 286 277 284 137 82 167 141 140 164 156 111 176 125 130 133 152 164 168 167
356 353 347 340 333 328 325 322 317 314 308 306 285 226 260 241 241 198 190 195 209 221 228 231 259 280 308 271 350 268 173 171 168 176 184 193 141 134 139 148 146 159 172 170 169
353 349 347 341 331 325 325 321 316 310 307 319 212 221 254 235 238 226 208 208 220 228 246 251 265 268 269 281 258 242 157 281 155 175 167 75 325 106 147 159 159 162 170 170 173
350 346 343 342 333 324 322 319 313 280 279 259 237 226 253 167 222 223 224 214 210 220 232 256 250 251 257 237 245 224 133 251 336 266 160 108 270 252 164 160 163 168 168 176 177
348 344 341 340 333 324 318 315 283 259 251 248 258 258 239 223 216 215 210 223 208 211 217 226 238 236 229 236 237 225 156 145 182 279 201 150 187 193 175 167 168 173 173 179 181
346 344 340 337 333 323 323 274 211 197 225 234 225 225 66 180 223 219 208 208 229 215 211 204 222 227 231 225 252 306 277 157 218 345 272 249 80 160 171 179 169 174 175 183 185
343 342 338 336 331 316 293 304 30 341 289 246 249 250 262 207 237 224 202 203 210 217 210 219 223 226 233 244 235 244 268 192 174 167 284 221 212 152 168 196 173 180 178 184 185
341 339 335 334 324 283 315 21 332 320 257 259 223 228 226 218 241 218 199 207 210 218 216 223 217 227 233 236 241 226 246 249 261 164 231 280 239 220 165 184 203 187 180 186 188
340 338 331 331 296 337 247 302 313 311 269 196 199 226 200 217 236 235 213 219 227 222 224 228 232 208 230 230 229 230 228 259 282 219 256 192 255 182 172 180 193 190 188 186 188
340 336 333 315 309 263 21 306 305 251 271 120 121 107 183 201 70 196 223 213 229 223 222 227 224 231 212 229 226 231 244 223 245 249 263 214 262 172 185 188 193 202 194 191 189
340 336 342 302 228 280 291 285 249 229 243 148 150 195 195 210 227 161 202 224 232 237 231 239 228 227 231 221 219 235 237 250 251 243 244 247 245 233 188 193 194 184 193 197 193
340 329 335 295 345 307 278 236 229 243 89 210 208 191 210 202 212 205 195 203 214 212 226 224 235 228 227 235 211 236 221 218 223 225 239 238 223 251 78 105 107 167 183 193 201
338 306 295 277 290 274 242 229 252 262 263 96 303 261 248 227 204 202 219 209 213 223 218 218 219 228 214 231 211 224 227 225 221 225 229 224 245 224 170 169 191 228 191 186 195
334 266 254 7 307 251 245 229 234 313 30 332 265 246 224 224 253 209 217 219 212 221 224 214 228 207 232 219 223 220 216 240 247 255 256 223 203 231 163 239 218 153 231 235 300
320 277 183 256 275 260 244 259 304 339 316 272 261 238 240 196 205 217 204 215 218 208 235 251 248 221 210 212 227 241 212 219 239 249 254 246 235 205 191 216 220 194 210 332 332
273 250 90 218 269 246 247 262 345 250 293 270 271 278 262 291 198 222 197 98 313 202 247 253 254 228 203 206 208 216 238 226 227 231 246 245 239 217 182 151 160 126 200 340 3
283 258 87 227 251 225 285 15 38 274 224 255 269 292 279 235 250 263 186 98 232 256 227 231 243 244 193 214 219 235 218 231 227 232 240 253 250 227 201 176 213 105 112 48 338
291 334 109 249 275 280 127 270 260 284 251 254 239 242 228 247 255 290 87 67 254 226 301 215 226 234 195 202 197 234 217 225 230 234 229 232 235 243 125 134 120 96 183 47 343
283 254 153 215 321 299 308 280 277 167 281 271 280 275 235 234 231 193 160 170 224 70 330 319 233 243 225 205 206 215 230 218 225 227 235 238 239 230 219 186 138 147 53 333 304
331 51 350 332 22 336 303 298 287 290 239 253 228 243 225 232 199 215 173 155 199 146 223 241 250 235 240 312 291 199 219 230 225 237 234 232 236 240 248 277 27 45 25 322 338
337 336 306 39 340 317 118 20 359 323 284 307 248 221 246 239 231 183 209 233 181 169 237 233 235 234 256 199 247 247 223 221 227 230 249 261 265 242 123 76 3 33 357 323 341
9 289 279 98 14 332 16 342 320 336 306 351 321 285 207 12 357 344 356 339 59 267 222 252 261 209 227 199 215 227 226 243 239 251 234 240 267 344 17 53 28 350 26 1 347
Height
807 804 802 799 795 791 788 785 782 780 778 775 771 767 764 760 756 754 747 745 747 749 752 753 753 751 748 737 735 739 766 770 763 761 755 744 753 749 751 753 750 756 759 770 782
807 804 800 797 795 791 788 784 781 778 775 772 770 766 764 760 755 747 744 745 746 748 751 749 747 748 740 728 726 772 770 762 741 738 750 745 746 755 757 761 761 761 760 774 783
806 803 799 797 794 791 788 784 781 776 773 771 769 767 764 761 753 735 741 743 745 746 745 744 741 741 741 725 723 742 757 754 747 729 729 747 754 740 752 775 756 764 769 775 781
805 801 798 795 791 789 786 783 779 776 772 769 767 765 764 763 761 739 740 742 744 747 745 742 739 740 748 735 721 743 739 740 745 735 737 746 736 749 758 762 745 758 767 773 779
805 801 797 793 790 786 783 780 777 774 771 768 766 764 763 754 742 740 741 742 746 748 742 739 738 735 746 727 724 739 734 738 729 733 731 732 735 739 744 740 745 759 767 771 775
802 798 795 791 788 784 780 776 773 771 769 767 765 764 763 757 739 742 744 745 745 744 739 737 733 726 734 727 727 720 740 736 726 730 723 729 732 733 743 743 751 762 767 769 771
801 796 792 788 785 781 777 774 770 768 766 764 763 762 755 742 739 740 743 744 743 740 735 734 733 733 723 726 715 717 735 727 726 726 728 721 742 739 740 744 754 761 765 767 770
801 796 791 787 782 778 774 770 767 765 763 762 761 762 749 737 739 741 740 741 740 739 736 733 736 733 731 718 721 725 741 756 727 724 720 754 804 743 740 747 756 757 761 766 770
800 795 790 785 781 776 771 767 764 762 762 761 760 756 743 737 739 738 737 736 737 739 738 739 738 733 726 737 737 724 766 791 781 724 721 748 808 762 740 747 755 757 759 765 769
799 794 789 784 778 773 769 765 762 761 760 761 757 754 737 732 729 733 735 736 733 735 738 740 737 740 735 735 753 733 736 767 791 736 716 747 782 740 735 739 749 753 757 762 767
798 793 787 782 777 772 766 762 760 757 752 736 730 731 727 730 734 733 731 734 733 733 746 737 749 748 733 725 715 724 733 750 776 764 741 730 757 731 730 731 741 748 753 759 762
796 790 785 780 775 771 767 755 761 765 754 733 732 730 726 734 731 727 728 734 736 740 734 739 748 727 719 716 720 726 732 730 723 727 728 732 726 720 727 729 730 738 745 752 757
794 788 782 777 773 770 765 764 765 763 753 723 722 725 726 731 732 720 721 724 730 738 731 737 725 720 722 724 730 728 735 729 732 726 726 728 738 727 720 726 723 726 733 742 749
792 786 780 775 775 767 762 766 765 764 753 721 723 718 721 724 728 720 715 722 725 730 727 723 712 718 726 729 723 740 719 721 733 740 750 722 753 730 716 725 725 724 728 734 741
790 784 778 775 773 764 766 766 764 762 759 707 716 716 710 724 708 713 714 716 725 722 721 723 718 719 726 724 716 733 712 722 728 737 737 738 745 725 712 728 724 720 720 724 733
787 781 777 775 773 768 767 766 764 763 753 718 710 719 722 718 713 706 715 716 712 720 713 712 698 705 709 706 712 712 723 735 727 734 760 735 737 727 715 714 710 711 715 720 725
784 779 776 774 765 768 767 763 762 751 709 716 716 711 713 711 717 713 722 725 728 742 733 719 711 697 700 714 712 718 732 766 771 765 765 720 734 722 702 702 699 704 710 713 718
781 778 774 773 770 769 766 760 763 721 714 712 719 712 716 703 708 709 714 720 713 713 722 728 735 705 693 704 719 721 723 746 778 763 747 720 741 722 694 692 694 697 696 700 707
778 774 770 769 769 768 760 755 738 723 722 727 719 727 716 703 713 710 712 709 704 703 721 719 718 695 693 694 704 716 727 711 734 721 731 714 709 698 695 700 699 700 701 700 699
779 767 762 769 768 765 758 751 732 732 735 731 737 715 719 712 719 710 707 697 696 695 692 703 719 691 693 696 698 706 700 741 731 762 761 725 723 719 708 708 703 702 702 701 701
777 758 763 766 766 758 751 733 732 733 737 736 729 724 718 708 706 705 703 710 709 709 709 710 708 693 686 702 712 717 717 712 715 726 746 748 725 686 699 700 702 701 707 707 702
767 756 763 764 760 741 741 736 761 742 735 737 734 727 722 716 720 707 705 712 721 714 721 707 701 708 696 685 690 696 707 708 729 745 721 722 720 672 677 685 700 702 702 702 704
762 755 760 760 753 737 735 746 746 742 739 735 735 727 724 726 730 714 714 723 723 717 713 703 713 719 705 701 696 707 697 701 705 710 726 735 724 677 684 690 698 706 707 705 714
767 752 750 753 753 755 750 749 746 743 746 741 735 731 733 732 726 728 726 731 726 719 734 722 711 712 711 706 697 714 702 699 705 720 723 716 711 694 690 693 698 705 709 715 718
769 765 770 756 755 764 757 756 754 751 744 742 739 736 733 734 729 729 720 730 726 733 725 717 722 705 696 696 694 698 708 704 708 706 717 711 710 699 694 696 700 707 713 717 716
779 776 767 765 767 766 770 768 778 774 758 747 744 731 728 733 728 729 726 725 725 724 723 713 725 714 715 707 707 708 700 703 703 705 710 709 708 684 688 695 708 712 716 720 716
788 785 777 784 777 775 784 789 786 782 766 761 751 744 740 743 737 731 722 722 724 732 728 726 721 731 730 709 714 728 712 709 706 703 709 724 711 697 700 709 717 721 723 731 730